Starlink 5519

operational
NORAD ID: 57223 Int'l Des: 2023-094 Owner: SPXS Country: US Constellation: starlink
LEOCIRCULAR

Starlink 5519について

説明を読み込み中...

リアルタイム位置

3D地球を読み込み中...

次回通過

高度履歴

Altitude vs Time

uPlot chart will show altitude changes over time

軌道要素

1 57223U 23094F 25258.69998055 -.00000141 00000-0 46564-5 0 9997
2 57223 43.0031 261.4619 0001246 275.9440 84.1261 15.02534351120795
Epoch: Sep 15, 2025 • Age: 17 hours

現在のステータス

高度 561.0 km
速度 7.58 km/s
衛星直下点 -12.89°S, 93.78°E
打ち上げ日 Jul 7, 2023
運用期間 2.1 years
タイプ internet

技術仕様

分類 Payload
質量 305.00 kg
乾燥質量 290.00 kg
総質量 305.00 kg
長さ 0.20 m
直径 2.80 m
スパン 9.00 m
形状 Box + pan
製造者 SPXS
バスタイプ Starlink
フェーズステータス In Orbit
所有者/国 SPXS/US

大規模コンステレーション

Loading constellations...